Waarnemingen

Advertentie
Mijn weer
Schaffen, België (6465): temperatuur & dauwpunt: 09.08.2018 15:00:00 - 15.08.2018 15:00:00 (CEST)Schaffen, België (6465): windsnelheid & windstoten: 09.08.2018 15:00:00 - 15.08.2018 15:00:00 (CEST)Schaffen, België (6465): windrichting: 09.08.2018 15:00:00 - 15.08.2018 15:00:00 (CEST)Schaffen, België (6465): luchtdruk: 09.08.2018 15:00:00 - 15.08.2018 15:00:00 (CEST)Schaffen, België (6465): zicht: 09.08.2018 15:00:00 - 15.08.2018 15:00:00 (CEST)
Datum & Tijd tt [°C] td [°C] ff [km/u] ff [kn] fx [km/u] fx [kn] dd ppp [hPa] vv [km]
15.08.2018 15:00:00 21,7 15,8 11 6 29 16 ZW 1019,8 20
15.08.2018 14:00:00 21,5 14,9 14 8 - - ZW 1020,0 20
15.08.2018 13:00:00 21,1 15,7 11 6 22 12 WZW 1020,2 20
15.08.2018 12:00:00 19,6 15,7 7 4 22 12 ZW 1020,2 20
15.08.2018 11:00:00 19,3 15,8 11 6 - - WZW 1020,2 20
15.08.2018 10:00:00 18,5 15,8 7 4 18 10 ZW 1019,8 19
15.08.2018 09:00:00 17,7 15,5 7 4 14 8 ZW 1019,6 17
15.08.2018 08:00:00 17,0 15,0 7 4 - - ZZW 1019,2 18
15.08.2018 07:00:00 16,3 14,6 7 4 14 8 ZZW 1019,0 20
15.08.2018 06:00:00 16,3 14,2 7 4 14 8 ZZW 1018,5 20
15.08.2018 05:00:00 16,4 14,0 7 4 - - ZW 1018,7 20
15.08.2018 04:00:00 16,2 13,5 7 4 14 8 ZW 1018,8 20
15.08.2018 03:00:00 16,3 13,4 7 4 14 8 ZW 1019,2 20
15.08.2018 02:00:00 16,8 13,2 7 4 - - ZW 1019,3 20
15.08.2018 01:00:00 17,8 12,9 7 4 11 6 ZW 1019,2 20
15.08.2018 00:00:00 18,2 13,1 7 4 11 6 ZW 1019,0 20
14.08.2018 23:00:00 18,7 13,1 4 2 - - N 1018,7 20
14.08.2018 22:00:00 18,8 12,3 4 2 14 8 N 1018,7 20
14.08.2018 21:00:00 19,6 12,4 7 4 18 10 WNW 1018,2 20
14.08.2018 20:00:00 20,5 12,6 14 8 - - WNW 1017,7 20
14.08.2018 19:00:00 21,3 13,1 11 6 25 14 WNW 1017,2 20
14.08.2018 18:00:00 21,1 17,2 7 4 14 8 NNW 1017,1 13
14.08.2018 17:00:00 20,6 16,8 7 4 - - WNW 1016,8 20
14.08.2018 16:00:00 19,2 16,9 7 4 25 14 NNW 1016,8 15
14.08.2018 15:00:00 20,8 15,7 14 8 29 16 W 1016,6 20
14.08.2018 14:00:00 20,4 16,4 11 6 - - WZW 1016,1 20
14.08.2018 13:00:00 18,1 16,2 22 12 32 18 WNW 1015,8 10
14.08.2018 12:00:00 21,5 15,5 18 10 29 16 W 1015,1 20
14.08.2018 11:00:00 21,1 16,5 11 6 - - WNW 1014,7 20
14.08.2018 10:00:00 19,6 16,6 14 8 22 12 W 1014,6 17
14.08.2018 09:00:00 18,3 16,6 11 6 18 10 W 1014,0 7
14.08.2018 08:00:00 17,3 16,2 7 4 - - WZW 1013,2 6
14.08.2018 07:00:00 16,7 15,9 7 4 14 8 WZW 1012,6 6
14.08.2018 06:00:00 16,2 15,3 7 4 18 10 WZW 1012,0 8
14.08.2018 05:00:00 15,5 14,7 9 5 - - ZW 1011,7 10
14.08.2018 04:00:00 15,3 14,3 7 4 14 8 ZW 1011,3 19
14.08.2018 03:00:00 15,6 14,4 11 6 18 10 ZW 1011,1 19
14.08.2018 02:00:00 16,2 14,7 7 4 - - ZW 1010,8 20
14.08.2018 01:00:00 16,6 15,2 7 4 18 10 ZW 1010,5 18
14.08.2018 00:00:00 17,1 15,7 11 6 14 8 WZW 1009,8 19
13.08.2018 23:00:00 17,0 15,6 7 4 - - ZW 1009,5 20
13.08.2018 22:00:00 17,2 15,5 7 4 18 10 ZW 1009,2 20
13.08.2018 21:00:00 17,8 15,8 4 2 14 8 N 1008,7 20
13.08.2018 20:00:00 18,7 15,1 7 4 - - ZW 1008,2 20
13.08.2018 19:00:00 19,5 16,8 11 6 22 12 WZW 1007,8 20
13.08.2018 18:00:00 18,2 15,5 11 6 25 14 ZZW 1007,7 20
13.08.2018 17:00:00 19,5 16,1 11 6 - - WZW 1007,2 15
13.08.2018 16:00:00 20,6 16,9 11 6 29 16 ZW 1007,2 20
13.08.2018 15:00:00 18,5 15,9 11 6 29 16 W 1007,5 20
13.08.2018 14:00:00 19,1 17,2 14 8 - - W 1007,0 20
13.08.2018 13:00:00 19,7 17,4 11 6 22 12 ZZW 1006,7 20
13.08.2018 12:00:00 17,8 17,4 11 6 32 18 Z 1006,8 18
13.08.2018 11:00:00 18,8 17,4 7 4 - - ZW 1006,7 20
13.08.2018 10:00:00 17,9 17,4 7 4 18 10 Z 1007,0 8
13.08.2018 09:00:00 17,5 16,9 7 4 14 8 Z 1006,7 15
13.08.2018 08:00:00 16,7 16,6 4 2 - - N 1006,6 13
13.08.2018 07:00:00 16,0 15,9 4 2 14 8 N 1006,3 14
13.08.2018 06:00:00 16,1 15,9 8 4 22 12 ZZO 1006,5 7
13.08.2018 05:00:00 18,2 14,3 11 6 - - ZW 1007,3 20
13.08.2018 04:00:00 17,8 13,8 4 2 14 8 N 1006,7 20
13.08.2018 03:00:00 19,2 12,0 4 2 32 18 N 1007,5 20
13.08.2018 02:00:00 19,2 11,5 7 4 - - N 1007,2 20
13.08.2018 01:00:00 19,9 11,1 7 4 11 6 ZZO 1008,1 20
13.08.2018 00:00:00 20,2 10,9 7 4 11 6 ZZO 1008,5 20
12.08.2018 23:00:00 20,7 10,9 7 4 - - ZZO 1009,2 20
12.08.2018 22:00:00 22,1 10,6 7 4 11 6 ZZO 1009,6 20
12.08.2018 21:00:00 23,2 10,3 7 4 22 12 Z 1010,0 20
12.08.2018 20:00:00 25,2 9,7 7 4 - - Z 1010,0 20
12.08.2018 19:00:00 26,2 8,4 11 6 25 14 Z 1010,5 20
12.08.2018 18:00:00 26,9 7,2 11 6 32 18 Z 1011,1 20
12.08.2018 17:00:00 27,5 7,3 14 8 - - Z 1011,7 20
12.08.2018 16:00:00 26,8 7,9 14 8 29 16 Z 1012,6 20
12.08.2018 15:00:00 26,6 7,6 14 8 32 18 Z 1013,6 20
12.08.2018 14:00:00 26,0 8,3 14 8 - - Z 1014,3 20
12.08.2018 13:00:00 24,9 8,9 14 8 32 18 ZZW 1015,2 20
12.08.2018 12:00:00 24,1 8,3 18 10 32 18 Z 1015,7 20
12.08.2018 11:00:00 23,0 9,1 14 8 - - Z 1016,2 20
12.08.2018 10:00:00 20,4 10,3 14 8 22 12 Z 1016,7 20
12.08.2018 09:00:00 17,3 9,6 7 4 14 8 Z 1017,2 20
12.08.2018 08:00:00 14,8 10,3 4 2 - - N 1017,6 20
12.08.2018 07:00:00 12,0 10,0 7 4 11 6 ZZO 1017,8 20
12.08.2018 06:00:00 11,6 9,7 7 4 11 6 Z 1018,0 20
12.08.2018 05:00:00 11,8 9,8 7 4 - - Z 1018,7 20
12.08.2018 04:00:00 12,3 9,6 7 4 7 4 ZZO 1019,5 20
12.08.2018 03:00:00 12,4 9,9 4 2 7 4 N 1020,0 20
12.08.2018 02:00:00 12,8 9,4 4 2 - - N 1020,6 20
12.08.2018 01:00:00 13,1 9,4 7 4 11 6 Z 1021,1 20
12.08.2018 00:00:00 14,6 8,7 4 2 7 4 N 1021,5 20
11.08.2018 23:00:00 15,8 8,2 4 2 - - N 1021,7 20
11.08.2018 22:00:00 17,6 6,5 4 2 4 2 N 1022,0 20
11.08.2018 21:00:00 18,7 6,8 4 2 11 6 N 1022,0 20
11.08.2018 20:00:00 20,5 6,8 7 4 - - NW 1022,1 20
11.08.2018 19:00:00 21,1 6,2 7 4 18 10 WNW 1022,3 20
11.08.2018 18:00:00 21,3 6,5 11 6 22 12 W 1022,5 20
11.08.2018 17:00:00 20,7 6,2 11 6 - - W 1022,8 20
11.08.2018 16:00:00 20,8 5,6 11 6 25 14 ZW 1023,2 20
11.08.2018 15:00:00 20,6 5,3 14 8 25 14 WZW 1023,3 20
11.08.2018 14:00:00 20,6 8,2 14 8 - - W 1023,8 20
11.08.2018 13:00:00 19,4 8,2 7 4 25 14 W 1023,7 20
11.08.2018 12:00:00 18,3 9,2 14 8 25 14 W 1024,0 20
11.08.2018 11:00:00 17,9 10,2 11 6 - - W 1024,0 20
11.08.2018 10:00:00 16,3 11,1 14 8 22 12 WZW 1024,0 20
11.08.2018 09:00:00 14,9 12,3 11 6 18 10 WZW 1023,6 20
11.08.2018 08:00:00 13,4 12,2 11 6 - - ZW 1023,0 18
11.08.2018 07:00:00 12,6 12,0 7 4 14 8 ZW 1022,5 20
11.08.2018 06:00:00 12,9 12,3 7 4 14 8 ZW 1022,0 20
11.08.2018 05:00:00 13,4 12,9 7 4 - - ZW 1021,5 17
11.08.2018 04:00:00 13,1 12,5 4 2 14 8 N 1021,2 20
11.08.2018 03:00:00 13,2 12,2 4 2 18 10 N 1021,3 20
11.08.2018 02:00:00 13,8 13,3 11 6 - - W 1021,5 16
11.08.2018 01:00:00 15,6 12,9 14 8 25 14 W 1021,0 20
11.08.2018 00:00:00 17,9 9,8 11 6 25 14 WNW 1020,1 20
10.08.2018 23:00:00 19,6 7,3 11 6 - - ZW 1020,2 20
10.08.2018 22:00:00 19,8 7,1 11 6 25 14 ZZW 1020,2 20
10.08.2018 21:00:00 20,2 6,6 11 6 29 16 ZW 1020,1 20
10.08.2018 20:00:00 21,0 5,9 18 10 - - ZW 1020,1 20
10.08.2018 19:00:00 21,8 6,6 18 10 36 19 ZZW 1020,2 20
10.08.2018 18:00:00 22,7 5,3 18 10 40 21 ZW 1020,5 20
10.08.2018 17:00:00 21,9 7,3 18 10 - - ZZW 1021,0 20
10.08.2018 16:00:00 21,7 7,2 18 10 36 19 ZW 1021,3 20
10.08.2018 15:00:00 20,5 8,0 18 10 40 21 ZW 1021,8 20
10.08.2018 14:00:00 20,7 8,3 22 12 - - ZW 1022,1 20
10.08.2018 13:00:00 19,2 7,1 18 10 36 19 ZW 1022,2 20
10.08.2018 12:00:00 19,7 9,1 22 12 36 19 ZZW 1022,2 20
10.08.2018 11:00:00 18,7 10,3 18 10 - - ZW 1022,1 20
10.08.2018 10:00:00 17,2 11,2 14 8 32 18 ZW 1022,1 20
10.08.2018 09:00:00 15,4 11,8 14 8 29 16 ZW 1021,7 20
10.08.2018 08:00:00 13,7 11,6 14 8 - - ZZW 1021,2 17
10.08.2018 07:00:00 12,8 11,5 11 6 22 12 ZZW 1020,7 20
10.08.2018 06:00:00 12,6 11,6 11 6 14 8 ZZW 1020,3 17
10.08.2018 05:00:00 12,8 11,9 7 4 - - ZZW 1020,1 13
10.08.2018 04:00:00 13,1 11,9 7 4 18 10 ZW 1019,8 19
10.08.2018 03:00:00 13,3 12,2 7 4 18 10 ZZW 1019,7 19
10.08.2018 02:00:00 13,8 12,4 11 6 - - ZW 1018,7 20
10.08.2018 01:00:00 14,3 12,7 16 9 29 16 WZW 1017,7 10
10.08.2018 00:00:00 14,8 13,7 18 10 40 21 W 1016,6 20
09.08.2018 23:00:00 15,3 13,7 25 14 - - W 1015,1 20
09.08.2018 22:00:00 16,1 13,2 25 14 50 27 WZW 1013,5 20
09.08.2018 21:00:00 16,6 14,5 25 14 50 27 ZW 1011,7 20
09.08.2018 20:00:00 19,8 14,9 26 14 - - ZW 1010,0 10
09.08.2018 19:00:00 20,7 15,0 32 18 58 31 WZW 1009,0 20
09.08.2018 18:00:00 21,9 16,7 29 16 50 27 ZZW 1007,5 20
09.08.2018 17:00:00 23,2 18,7 18 10 - - Z 1006,7 20
09.08.2018 16:00:00 21,8 19,2 13 7 22 12 ZZO 1007,2 10
09.08.2018 15:00:00 20,1 18,8 7 4 14 8 O 1007,8 7

tt = temperatuur
td = dauwpunt
ff = windsnelheid
fx = windstoten
dd = windrichting
ppp = luchtdruk
vv = zicht

Weerstations in de omgeving